Date,Time,Air Temperature,Dewpoint,Windchill,Heat Index,RH,3m Max Wind Speed,3m Mean Wind Speed,3m Wind Direction,Rain,Solar Radiation
,,F,F,F,F,%,MPH,MPH,deg,in,MJ/m^2
2024-04-18,14:50,71.3,30.4,,71.3,21.9,24,13.9,234,0.0,0.1848
2024-04-18,14:55,71.7,30.8,,71.7,22.1,20.9,12.5,244,0.0,0.21684
2024-04-18,15:00,71.2,31.1,,71.2,22.6,17.3,11.1,235,0.0,0.24294
2024-04-18,15:05,72.1,31,,72.1,21.9,22.5,12.7,217,0.0,0.21582
2024-04-18,15:10,73.3,31.5,,73.3,21.5,21,12.4,224,0.0,0.22578
2024-04-18,15:15,71.8,31.6,,71.8,22.7,15.6,8.6,254,0.0,0.17478
2024-04-18,15:20,71.9,31.5,,71.9,22.5,18.8,10.2,240,0.0,0.15348
2024-04-18,15:25,71.6,31.1,,71.6,22.3,24.5,11.7,216,0.0,0.18876
2024-04-18,15:30,71.6,30.8,,71.6,22.1,25.8,12.5,238,0.0,0.19962
2024-04-18,15:35,71.1,30.8,,71.1,22.5,27.9,14.7,237,0.0,0.19008
2024-04-18,15:40,70.6,30.8,,70.6,22.8,21,11.6,227,0.0,0.13674
2024-04-18,15:45,71.6,30.9,,71.6,22.2,18.2,11.8,232,0.0,0.1398
2024-04-18,15:50,70.6,30.7,,70.6,22.7,20.1,14.4,231,0.0,0.13992
2024-04-18,15:55,71.1,30.3,,71.1,22.0,20.3,11,231,0.0,0.15486
2024-04-18,16:00,70.6,30.4,,70.6,22.5,22.7,14.7,233,0.0,0.14748
2024-04-18,16:05,71,30.2,,71,22.0,23.2,11.3,216,0.0,0.156
2024-04-18,16:10,71.6,30.4,,71.6,21.8,25.3,15,227,0.0,0.19788
2024-04-18,16:15,72.6,30.6,,72.6,21.1,21.1,13.4,231,0.0,0.21096
2024-04-18,16:20,73,29.8,,73,20.2,24.6,16.6,236,0.0,0.19404
2024-04-18,16:25,72.1,29.8,,72.1,20.9,25.1,16,227,0.0,0.1734
2024-04-18,16:30,71.7,30,,71.7,21.3,16.4,10.2,219,0.0,0.1413
2024-04-18,16:35,71.6,29.9,,71.6,21.3,20.5,10.8,253,0.0,0.13338
2024-04-18,16:40,72.1,29,,72.1,20.2,22.2,13.2,230,0.0,0.14268
2024-04-18,16:45,71.7,28.2,,71.7,19.8,21.1,12.5,247,0.0,0.12984
2024-04-18,16:50,72.1,28.6,,72.1,19.8,21.5,13.1,253,0.0,0.1251
2024-04-18,16:55,71.1,28.1,,71.1,20.1,24.2,14.5,265,0.0,0.11076
2024-04-18,17:00,70.2,27.4,,70.2,20.2,24.2,14.6,266,0.0,0.0924
2024-04-18,17:05,70.2,27.2,,70.2,20.0,19.5,12.1,270,0.0,0.1008
2024-04-18,17:10,69.6,27.2,,69.6,20.4,23.6,15.1,248,0.0,0.069
2024-04-18,17:15,69.6,27.1,,69.6,20.4,17.2,12,274,0.0,0.06246
2024-04-18,17:20,69.4,27,,69.4,20.3,18.4,12.9,255,0.0,0.0645
2024-04-18,17:25,69.3,26.9,,69.3,20.3,19.1,11.2,258,0.0,0.0678
2024-04-18,17:30,69.1,26.9,,69.1,20.5,18.6,10.5,261,0.0,0.06612
2024-04-18,17:35,69,26.9,,69,20.5,18.6,13.1,273,0.0,0.063
2024-04-18,17:40,69.1,26.6,,69.1,20.2,14.9,10.1,273,0.0,0.05448
2024-04-18,17:45,68.8,26.4,,68.8,20.2,19.1,11.9,262,0.0,0.05076
2024-04-18,17:50,68.6,25.8,,68.6,19.9,21.8,12.1,271,0.0,0.05274
2024-04-18,17:55,68.6,26.1,,68.6,20.1,16.2,9.7,279,0.0,0.04674
2024-04-18,18:00,68.3,26.2,,68.3,20.4,17.5,10.5,275,0.0,0.04026
2024-04-18,18:05,68.3,26.1,,68.3,20.3,16.1,10.4,280,0.0,0.0384
2024-04-18,18:10,68.2,26.1,,68.2,20.4,17.3,10.4,273,0.0,0.03366
2024-04-18,18:15,68,26,,68,20.5,14.7,9.8,266,0.0,0.03192
2024-04-18,18:20,68,26,,68,20.5,17.6,10.3,254,0.0,0.03888
2024-04-18,18:25,68,26.1,,68,20.6,14.2,8.9,272,0.0,0.03594
2024-04-18,18:30,67.7,25.9,,67.7,20.6,16.9,10.2,272,0.0,0.02802
2024-04-18,18:35,67.4,25.7,,67.4,20.7,15.3,10.4,265,0.0,0.02268
2024-04-18,18:40,67.1,25.6,,67.1,20.7,16.8,10.4,273,0.0,0.01902
2024-04-18,18:45,66.8,25.6,,66.8,21.0,11.8,7.9,270,0.0,0.01734
2024-04-18,18:50,66.2,26,,66.2,21.8,7.6,5,256,0.0,0.01452
2024-04-18,18:55,65.6,26,,65.6,22.2,4.1,2.9,245,0.0,0.0099
2024-04-18,19:00,64.9,25.6,,64.9,22.4,3.3,2.5,243,0.0,0.00612
2024-04-18,19:05,64.3,25.3,,64.3,22.7,3.4,2.9,225,0.0,0.00492
2024-04-18,19:10,63.6,25,,63.6,23.0,4.6,3.5,212,0.0,0.00372
2024-04-18,19:15,61.4,24.4,,61.4,24.2,5.7,4.9,191,0.0,0.0024
2024-04-18,19:20,60.7,24,,60.7,24.3,7.1,5.1,194,0.0,0.00102
2024-04-18,19:25,61.7,24,,61.7,23.5,9.1,4.8,208,0.0,0.00036
2024-04-18,19:30,61,24,,61,24.1,6.2,4.6,201,0.0,0.00012
2024-04-18,19:35,60.8,24.1,,60.8,24.3,5.7,4.3,204,0.0,0
2024-04-18,19:40,61.3,25.4,,61.3,25.3,9,5.6,211,0.0,0
2024-04-18,19:45,60.3,26,,60.3,26.8,5.9,4.3,202,0.0,0
2024-04-18,19:50,61.6,26.1,,61.6,25.7,11,7.5,199,0.0,0
2024-04-18,19:55,62.1,26.4,,62.1,25.5,12.7,8,205,0.0,0
2024-04-18,20:00,61.5,26.6,,61.5,26.3,8.8,6,202,0.0,0
2024-04-18,20:05,62,26.2,,62,25.4,12,8,202,0.0,0
2024-04-18,20:10,61.8,26.1,,61.8,25.5,10.4,7.2,199,0.0,0
2024-04-18,20:15,62.1,26.1,,62.1,25.3,14.5,7.4,207,0.0,0
2024-04-18,20:20,61.7,26.1,,61.7,25.6,10.6,7.7,199,0.0,0
2024-04-18,20:25,61.5,26.1,,61.5,25.8,11.4,7.2,205,0.0,0
2024-04-18,20:30,61.6,25.8,,61.6,25.3,17.9,9,199,0.0,0
2024-04-18,20:35,60.7,26.7,,60.7,27.2,12.5,8.6,175,0.0,0
2024-04-18,20:40,59.4,27.8,,59.4,29.8,13.5,8.5,181,0.0,0
2024-04-18,20:45,58.4,28,,58.4,31.2,11.3,6.5,182,0.0,0
2024-04-18,20:50,58,28,,58,31.6,9.8,6.8,186,0.0,0
2024-04-18,20:55,57.6,28,,57.6,32.1,7.7,5.1,194,0.0,0
2024-04-18,21:00,57,28,,57,32.8,5.5,3.6,231,0.0,0
2024-04-18,21:05,56.9,28,,56.9,32.9,4.2,3.1,273,0.0,0
2024-04-18,21:10,57.4,28,,57.4,32.3,6.3,4.3,268,0.0,0
2024-04-18,21:15,58.4,27.9,,58.4,31.1,11.1,6.2,196,0.0,0
2024-04-18,21:20,57.4,27.9,,57.4,32.2,9.6,5.9,204,0.0,0
2024-04-18,21:25,57.2,27.9,,57.2,32.4,9.5,7.1,204,0.0,0
2024-04-18,21:30,56,28.1,,56,34.1,9.8,5.9,215,0.0,0
2024-04-18,21:35,54.3,28.1,,54.3,36.3,11.1,8.2,201,0.0,0
2024-04-18,21:40,53.9,28.4,,53.9,37.2,9.4,7.2,190,0.0,0
2024-04-18,21:45,53.5,28.4,,53.5,37.8,10.2,6.8,185,0.0,0
2024-04-18,21:50,53,27.9,,53,37.8,5.1,2.7,149,0.0,0
2024-04-18,21:55,52.6,27.6,,52.6,37.9,5.9,3,144,0.0,0
2024-04-18,22:00,52.4,27.5,,52.4,38.0,5.1,2.5,352,0.0,0
2024-04-18,22:05,52.7,27.3,,52.7,37.4,5.6,3.7,17,0.0,0
2024-04-18,22:10,52.7,27.4,,52.7,37.5,4.8,3,18,0.0,0
2024-04-18,22:15,52.1,27.3,,52.1,38.1,4.5,2.8,19,0.0,0
2024-04-18,22:20,52.2,27.6,,52.2,38.4,3.8,2.2,93,0.0,0
2024-04-18,22:25,52.1,27.6,,52.1,38.7,2.5,1.5,206,0.0,0
2024-04-18,22:30,51.8,27.5,,51.8,38.9,4,1.9,299,0.0,0
2024-04-18,22:35,50.8,27.5,,50.8,40.4,4.5,2.6,333,0.0,0
2024-04-18,22:40,50.8,27.5,,50.8,40.3,4.5,1.8,35,0.0,0
2024-04-18,22:45,50.6,27.5,,50.6,40.6,6.3,4.3,303,0.0,0
2024-04-18,22:50,50.5,27.5,,50.5,40.8,7,4.3,335,0.0,0
2024-04-18,22:55,50.5,27.6,,50.5,41,4.8,3.5,332,0.0,0
2024-04-18,23:00,50.3,27.7,,50.3,41.4,5.2,3.6,357,0.0,0
2024-04-18,23:05,50.4,27.9,,50.4,41.6,5,2.1,330,0.0,0
2024-04-18,23:10,49.5,27.7,,49.5,42.7,4,1.8,233,0.0,0
2024-04-18,23:15,48.9,27.4,,48.9,43.1,6.1,3.5,279,0.0,0
2024-04-18,23:20,49.9,27.9,,49.9,42.4,3,1.6,115,0.0,0
2024-04-18,23:25,49.8,28,,49.8,42.7,6.4,3,67,0.0,0
2024-04-18,23:30,49.9,28.3,,49.9,43.0,7.8,4.5,348,0.0,0
2024-04-18,23:35,48.6,28.1,,48.6,44.9,3.6,2.2,35,0.0,0
2024-04-18,23:40,49,28.3,,49,44.5,8.1,3.6,137,0.0,0
2024-04-18,23:45,49.4,29.2,,49.4,45.5,6.4,4,25,0.0,0
2024-04-18,23:50,49.3,29.6,,49.3,46.3,6.4,3.6,59,0.0,0
2024-04-18,23:55,48.8,29.4,,48.8,46.9,4.3,2.6,53,0.0,0
2024-04-19,00:00,48.1,29.3,,48.1,48.0,4.8,3.1,9,0.0,0
2024-04-19,00:05,47.4,28.9,,47.4,48.6,6.8,3.2,312,0.0,0
2024-04-19,00:10,46.4,28.5,,46.4,49.4,7.4,3.8,354,0.0,0
2024-04-19,00:15,46.4,28.6,,46.4,49.6,8.2,5.6,349,0.0,0
2024-04-19,00:20,46.1,28.1,,46.1,49.3,8.2,5.9,7,0.0,0
2024-04-19,00:25,45.7,27.9,,45.7,49.6,6,3.7,324,0.0,0
2024-04-19,00:30,45.7,28,,45.7,49.8,6.1,3.7,28,0.0,0
2024-04-19,00:35,46,28,,46,49.2,7.4,4.2,33,0.0,0
2024-04-19,00:40,45.6,28,,45.6,50.0,4.6,2.4,44,0.0,0
2024-04-19,00:45,45.5,28,,45.5,50.3,5.2,2.5,44,0.0,0
2024-04-19,00:50,45.1,28,,45.1,50.9,3,1.7,32,0.0,0
2024-04-19,00:55,44.6,27.7,,44.6,51.3,6.1,4,35,0.0,0
2024-04-19,01:00,44.6,27.6,,44.6,50.9,5.6,3.7,60,0.0,0
2024-04-19,01:05,44.7,27.7,,44.7,51.2,6.1,3.4,50,0.0,0
2024-04-19,01:10,44.3,28,,44.3,52.4,5.1,2.8,44,0.0,0
2024-04-19,01:15,44.8,27.8,,44.8,51.1,4.6,3,43,0.0,0
2024-04-19,01:20,44.7,27.7,,44.7,51.2,5.7,3.6,51,0.0,0
2024-04-19,01:25,44.5,27.6,,44.5,51.1,4.7,3.2,45,0.0,0
2024-04-19,01:30,44.5,27.6,,44.5,51.3,7.9,4.1,71,0.0,0
2024-04-19,01:35,44.7,28,,44.7,51.8,7.4,4.3,65,0.0,0
2024-04-19,01:40,44.6,28.5,,44.6,52.9,6.9,4,74,0.0,0
2024-04-19,01:45,44.8,28.8,,44.8,53.1,6.6,3.9,72,0.0,0
2024-04-19,01:50,44.8,28.9,,44.8,53.6,5.9,3.5,83,0.0,0
2024-04-19,01:55,44.9,29.2,,44.9,53.9,7.8,4.9,87,0.0,0
2024-04-19,02:00,45.2,29.4,,45.2,53.7,9,5.6,91,0.0,0
2024-04-19,02:05,45.6,29.8,,45.6,53.7,8.5,5.4,73,0.0,0
2024-04-19,02:10,45.3,29.8,,45.3,54.4,8.7,4.7,53,0.0,0
2024-04-19,02:15,44.3,30,,44.3,56.9,6.6,3.4,42,0.0,0
2024-04-19,02:20,44,29.8,,44,57.2,5.6,2,76,0.0,0
2024-04-19,02:25,44.3,29.8,,44.3,56.5,8.7,4.9,86,0.0,0
2024-04-19,02:30,44.5,30.3,,44.5,57.2,9.4,6.4,96,0.0,0
2024-04-19,02:35,44.2,30.1,,44.2,57.5,8.2,5.3,97,0.0,0
2024-04-19,02:40,44.5,30.1,,44.5,56.8,11,7.5,96,0.0,0
2024-04-19,02:45,44.5,30.3,,44.5,57.1,10.2,6.2,104,0.0,0
2024-04-19,02:50,44.1,30.3,,44.1,58.0,8.8,6.1,114,0.0,0
2024-04-19,02:55,44.4,30.3,,44.4,57.3,11.4,7.1,107,0.0,0
2024-04-19,03:00,44.7,30.3,,44.7,56.8,12.7,8.8,105,0.0,0
2024-04-19,03:05,45.1,30.6,,45.1,56.6,13.6,8.7,101,0.0,0
2024-04-19,03:10,44.5,30.6,,44.5,58.0,9.6,5.7,90,0.0,0
2024-04-19,03:15,44.5,30.5,,44.5,57.8,6.3,3.8,79,0.0,0
2024-04-19,03:20,44.9,30.6,,44.9,57.1,12.3,7.8,76,0.0,0
2024-04-19,03:25,44.5,30.7,,44.5,58.2,11.8,8.3,79,0.0,0
2024-04-19,03:30,43.7,30.7,,43.7,59.9,9.1,4.9,70,0.0,0
2024-04-19,03:35,43.1,30.4,,43.1,60.6,7,3.9,31,0.0,0
2024-04-19,03:40,43.4,30.3,,43.4,59.6,10.2,5.9,81,0.0,0
2024-04-19,03:45,44.3,30.5,,44.3,58.1,10.4,6,82,0.0,0
2024-04-19,03:50,44,30.6,,44,59.1,6.3,2.6,89,0.0,0
2024-04-19,03:55,44.2,30.7,,44.2,58.7,6.2,3.1,42,0.0,0
2024-04-19,04:00,43.4,30.7,,43.4,60.5,6.6,4.1,58,0.0,0
2024-04-19,04:05,43.3,30.7,,43.3,60.9,6.8,3.4,83,0.0,0
2024-04-19,04:10,43,30.6,,43,61.3,6.4,3.5,48,0.0,0
2024-04-19,04:15,43,30.7,,43,61.5,5.6,3.6,58,0.0,0
2024-04-19,04:20,43.5,30.9,,43.5,60.8,5.5,2.9,54,0.0,0
2024-04-19,04:25,43.7,31.1,,43.7,61.1,6.2,3.5,46,0.0,0
2024-04-19,04:30,43.6,31.4,,43.6,61.9,7.2,3.6,64,0.0,0
2024-04-19,04:35,43.5,31.5,,43.5,62.3,6.6,3.7,52,0.0,0
2024-04-19,04:40,43.4,31.5,,43.4,62.8,9,5.4,32,0.0,0
2024-04-19,04:45,43.1,31.9,,43.1,64.5,8,4.9,32,0.0,0
2024-04-19,04:50,42.7,31.9,,42.7,65.3,8.5,4.7,26,0.0,0
2024-04-19,04:55,42.4,31.9,,42.4,66.0,5.2,3,39,0.0,0
2024-04-19,05:00,42.3,31.6,,42.3,65.6,7.1,3.8,48,0.0,0
2024-04-19,05:05,42.1,31.5,,42.1,66.0,6.9,4.5,26,0.0,0
2024-04-19,05:10,41.8,31.7,,41.8,67.1,7.7,4.6,33,0.0,0
2024-04-19,05:15,41.7,31.9,,41.7,68.0,6.8,4.3,19,0.0,0
2024-04-19,05:20,41.3,31.7,,41.3,68.5,6,3.5,31,0.0,0
2024-04-19,05:25,40.4,31.6,,40.4,70.8,3.9,2.4,75,0.0,0
2024-04-19,05:30,39,30.7,,39,71.9,6,3.3,87,0.0,0
2024-04-19,05:35,38.9,30.3,,38.9,70.8,6,3.6,76,0.0,0
2024-04-19,05:40,39.2,30.3,,39.2,70.2,7.1,4.5,80,0.0,0
2024-04-19,05:45,39.2,30.5,,39.2,70.9,6,3.8,83,0.0,0
2024-04-19,05:50,39.3,30.6,,39.3,70.7,7.7,4.4,78,0.0,0
2024-04-19,05:55,39.2,30.9,,39.2,71.8,5.5,3.7,67,0.0,0
2024-04-19,06:00,38.9,31.1,,38.9,73.5,5.4,3.6,32,0.0,0.00018
2024-04-19,06:05,39,31.3,,39,73.6,6.9,3.3,50,0.0,0.00066
2024-04-19,06:10,38.3,31,,38.3,74.8,6.7,4.3,75,0.0,0.00144
2024-04-19,06:15,38.2,30.7,,38.2,74.3,8.4,4.3,70,0.0,0.00216
2024-04-19,06:20,38.3,30.7,,38.3,74.0,7.5,3.6,68,0.0,0.003
2024-04-19,06:25,38,30.8,,38,75.0,8.3,4.1,88,0.0,0.0039
2024-04-19,06:30,38.7,31,,38.7,73.5,7.9,5.2,63,0.0,0.00894
2024-04-19,06:35,39.4,31.7,,39.4,73.8,5.7,4,47,0.0,0.0144
2024-04-19,06:40,39.9,32.4,,39.9,74.1,7.5,4.4,70,0.0,0.01776
2024-04-19,06:45,40.5,33,,40.5,74.4,9.7,6,85,0.0,0.02124
2024-04-19,06:50,40.3,32.9,,40.3,74.8,7.7,4.6,82,0.0,0.02484
2024-04-19,06:55,41.1,33.5,,41.1,74.2,10.1,5.5,68,0.0,0.0285
2024-04-19,07:00,41.6,33.8,,41.6,73.8,8.9,5.5,71,0.0,0.03246
2024-04-19,07:05,41.9,34.4,,41.9,74.4,10.3,5.5,62,0.0,0.03654
2024-04-19,07:10,42.9,34.8,,42.9,72.8,7,3.9,29,0.0,0.0408
2024-04-19,07:15,43.2,35.2,,43.2,73.1,9.4,5.5,40,0.0,0.0453
2024-04-19,07:20,43.7,35.4,,43.7,72.4,9.2,5,30,0.0,0.04956
2024-04-19,07:25,44.2,35.9,,44.2,72.4,15.7,8.4,13,0.0,0.05436
2024-04-19,07:30,44.1,36,,44.1,72.8,14.1,9.2,10,0.0,0.05916
2024-04-19,07:35,44.5,36.1,,44.5,72.1,11.9,8.9,15,0.0,0.06408
2024-04-19,07:40,44.7,36.2,,44.7,71.9,12.7,8.4,9,0.0,0.06912
2024-04-19,07:45,45.1,36.3,,45.1,71.2,12.3,8.2,8,0.0,0.07398
2024-04-19,07:50,45.9,36.6,,45.9,70.1,11.2,6.7,15,0.0,0.07932
2024-04-19,07:55,45.6,36.8,,45.6,71.0,11.3,8.4,4,0.0,0.08442
2024-04-19,08:00,45.9,36.9,,45.9,70.8,11.4,7.8,353,0.0,0.0897
2024-04-19,08:05,45.8,36.5,,45.8,69.8,10.4,7.6,348,0.0,0.09486
2024-04-19,08:10,45.8,36.7,,45.8,70.4,12.5,6.8,350,0.0,0.10026
2024-04-19,08:15,46.4,36.8,,46.4,69.1,8.9,5.5,358,0.0,0.10542
2024-04-19,08:20,46.6,36.9,,46.6,68.8,10.6,6.4,358,0.0,0.11076
2024-04-19,08:25,47.5,37.2,,47.5,67.3,10.4,6.9,10,0.0,0.11622
2024-04-19,08:30,47,37.1,,47,68.1,9.1,6.1,336,0.0,0.12114
2024-04-19,08:35,47.4,37.2,,47.4,67.6,12.9,7.2,340,0.0,0.12666
2024-04-19,08:40,47.6,37,,47.6,66.4,12.9,9,349,0.0,0.13182
2024-04-19,08:45,47.9,37.1,,47.9,65.8,13.6,5.4,355,0.0,0.13692
2024-04-19,08:50,48.1,37.1,,48.1,65.7,11.8,5.7,340,0.0,0.14202
2024-04-19,08:55,48.7,37.2,,48.7,64.3,12.5,7.9,344,0.0,0.14736
2024-04-19,09:00,48.6,37.2,,48.6,64.7,13.2,7.8,336,0.0,0.15222
2024-04-19,09:05,48.8,37.2,,48.8,64.1,13.6,6.8,331,0.0,0.15714
2024-04-19,09:10,49.2,37.3,,49.2,63.2,9.7,5.7,341,0.0,0.16188
2024-04-19,09:15,49.8,37.5,,49.8,62.6,11.9,5.7,348,0.0,0.1671
2024-04-19,09:20,49.8,37.5,,49.8,62.4,10.9,6.2,328,0.0,0.17178
2024-04-19,09:25,50.7,37.6,,50.7,60.6,9.7,5.8,324,0.0,0.17622
2024-04-19,09:30,50.7,37.4,,50.7,60.1,9.9,6.1,346,0.0,0.18084
2024-04-19,09:35,51.2,37.6,,51.2,59.6,7.8,4.3,332,0.0,0.18534
2024-04-19,09:40,51.4,37.5,,51.4,58.9,9.6,5.1,334,0.0,0.1899
2024-04-19,09:45,51.6,37.6,,51.6,58.7,9.6,5,293,0.0,0.19398
2024-04-19,09:50,52.2,37.3,,52.2,56.6,6.9,4.1,308,0.0,0.1983
2024-04-19,09:55,53,37.9,,53,56.3,9,4.5,348,0.0,0.2025
2024-04-19,10:00,53.1,37.7,,53.1,55.8,8,4.1,328,0.0,0.20646
2024-04-19,10:05,53.9,38.1,,53.9,55,10.4,4.8,336,0.0,0.21084
2024-04-19,10:10,54,38.2,,54,55.1,9.9,5.8,349,0.0,0.21432
2024-04-19,10:15,54.3,38,,54.3,53.9,9.2,4.6,350,0.0,0.21798
2024-04-19,10:20,55,38.1,,55,52.8,5,3.1,65,0.0,0.22206
2024-04-19,10:25,55.4,38.1,,55.4,52.1,10.4,3.8,13,0.0,0.22614
2024-04-19,10:30,54.9,37.9,,54.9,52.6,9.5,5.4,321,0.0,0.22932
2024-04-19,10:35,56,37.9,,56,50.6,9.4,4.9,295,0.0,0.23244
2024-04-19,10:40,56,37.5,,56,49.7,7.6,4.2,287,0.0,0.23604
2024-04-19,10:45,56.5,37.4,,56.5,48.6,10.3,3.8,342,0.0,0.2391
2024-04-19,10:50,57.5,37.7,,57.5,47.5,9.3,3.2,341,0.0,0.24216
2024-04-19,10:55,57.4,37.5,,57.4,47.4,10.7,6.2,335,0.0,0.2448
2024-04-19,11:00,58.6,37.5,,58.6,45.2,10.1,4.6,24,0.0,0.24798
2024-04-19,11:05,58.9,37.4,,58.9,44.7,9.9,5.4,343,0.0,0.25026
2024-04-19,11:10,59.1,37.3,,59.1,44.0,10.7,5,306,0.0,0.25296
2024-04-19,11:15,60.1,37.3,,60.1,42.7,8.7,3.1,26,0.0,0.2556
2024-04-19,11:20,59.6,37.1,,59.6,43.0,11.1,5.8,346,0.0,0.25788
2024-04-19,11:25,60.8,37.5,,60.8,41.9,4.9,2.1,70,0.0,0.2607
2024-04-19,11:30,61.8,37,,61.8,39.7,10,5,355,0.0,0.26274
2024-04-19,11:35,61.7,36.5,,61.7,39.0,13.5,6.8,2,0.0,0.2643
2024-04-19,11:40,62.6,36.2,,62.6,37.3,14.5,6.9,10,0.0,0.26592
2024-04-19,11:45,63,35.8,,63,36.3,16.2,7.7,302,0.0,0.26826
2024-04-19,11:50,64,33.7,,64,32.1,15.9,7.1,274,0.0,0.27072
2024-04-19,11:55,64.2,33.8,,64.2,32.2,13.4,6.1,283,0.0,0.27126
2024-04-19,12:00,65.3,33.5,,65.3,30.5,17.9,10.4,223,0.0,0.27348
2024-04-19,12:05,64.5,33.1,,64.5,30.9,16.3,9.9,228,0.0,0.27492
2024-04-19,12:10,65,33.4,,65,30.7,14,8.2,251,0.0,0.2757
2024-04-19,12:15,64.5,33,,64.5,30.7,14.4,9.6,272,0.0,0.27792
2024-04-19,12:20,65.4,32.6,,65.4,29.3,12.1,8.1,271,0.0,0.27786
2024-04-19,12:25,66.2,33,,66.2,29.0,15.2,10.2,277,0.0,0.2745
2024-04-19,12:30,67,31.8,,67,26.9,13.9,9.1,261,0.0,0.27834
2024-04-19,12:35,66.9,31.4,,66.9,26.6,19.4,10.5,278,0.0,0.2787
2024-04-19,12:40,65.8,31.4,,65.8,27.7,19.2,10.7,287,0.0,0.27882
2024-04-19,12:45,67.6,32.1,,67.6,26.7,12.6,7.5,253,0.0,0.2787
2024-04-19,12:50,66.8,31.2,,66.8,26.4,20.2,11.3,252,0.0,0.2796
2024-04-19,12:55,67.4,30.5,,67.4,25.2,17.8,7.9,242,0.0,0.27936
2024-04-19,13:00,67.5,30.8,,67.5,25.4,19.3,11.1,229,0.0,0.27876
2024-04-19,13:05,68.1,30.2,,68.1,24.2,24.3,13.5,244,0.0,0.27876
2024-04-19,13:10,67.1,29.7,,67.1,24.7,14.1,9.4,263,0.0,0.27792
2024-04-19,13:15,67.5,30.6,,67.5,25.2,24.2,13.3,261,0.0,0.27684
2024-04-19,13:20,67.9,30.4,,67.9,24.7,16.7,11.4,237,0.0,0.27612
2024-04-19,13:25,68.5,30.8,,68.5,24.6,18.1,10.2,232,0.0,0.27486
2024-04-19,13:30,69.2,30.9,,69.2,24.1,18.7,9.8,251,0.0,0.27414
2024-04-19,13:35,67.7,29.7,,67.7,24.1,14.8,8.3,257,0.0,0.27276
2024-04-19,13:40,68.9,30.3,,68.9,23.7,16.2,10.7,229,0.0,0.2709
2024-04-19,13:45,68.3,30.3,,68.3,24.2,19.4,11.8,218,0.0,0.26964
2024-04-19,13:50,68.6,30.1,,68.6,23.7,23.9,13,199,0.0,0.26844
2024-04-19,13:55,69.4,29.6,,69.4,22.7,22,12.6,221,0.0,0.26628
2024-04-19,14:00,69.2,29.1,,69.2,22.4,21.1,14.8,234,0.0,0.26466
2024-04-19,14:05,,,,,,,,,,
2024-04-19,14:10,,,,,,,,,,
2024-04-19,14:15,,,,,,,,,,
2024-04-19,14:20,,,,,,,,,,
2024-04-19,14:25,,,,,,,,,,
2024-04-19,14:30,,,,,,,,,,
2024-04-19,14:35,,,,,,,,,,
2024-04-19,14:40,,,,,,,,,,
2024-04-19,14:45,,,,,,,,,,
